Columbia Airport, CA

11:24 AM PST on December 07, 2019 (GMT -0800)
Columbia Airport

Weather History for KO22 - October, 2019

Change the Weather History Date:

Thursday, October 24, 2019

  Actual Average (KMOD) Record (KMOD)
Temperature  
Mean Temperature 68 °F -  
Max Temperature 87 °F 75 °F 93 °F (1959)
Min Temperature 50 °F 49 °F 35 °F (1935)
Cooling Degree Days 4    
Growing Degree Days 18 (Base 50)    
Moisture  
Dew Point 30 °F    
Average Humidity 32    
Maximum Humidity 58    
Minimum Humidity 8    
Precipitation  
Precipitation 0.00 in - - ()
Sea Level Pressure  
Sea Level Pressure 30.11 in    
Wind  
Wind Speed 1 mph (SW)    
Max Wind Speed 7 mph    
Max Gust Speed 13 mph    
Visibility 10 miles    
Events      
Averages and records for this station are not official NWS values.
T = Trace of Precipitation, MM = Missing Value Source: NWS Daily Summary

Daily Weather History Graph

Daily Weather History Graph

Search for Another Location

Airport or City:

Astronomy

Oct. 24, 2019 Rise Set
Actual Time 7:18 AM PDT 6:12 PM PDT
Civil Twilight 6:52 AM PDT 6:38 PM PDT
Nautical Twilight 6:21 AM PDT 7:09 PM PDT
Astronomical Twilight 5:50 AM PDT 7:40 PM PDT
Moon 3:00 AM PDT (10/24) 4:37 PM PDT (10/24)
Length of Visible Light 11h 46m
Length of Day
10h 53m
Waning Crescent, 16% of the Moon is Illuminated
Oct 24
Waning Crescent
Oct 27
New
Nov 4
First Quarter
Nov 12
Full
Nov 19
Last Quarter

Hourly Weather History & Observations

Time (PDT) Temp. Dew Point Humidity Pressure Visibility Wind Dir Wind Speed Gust Speed Precip Events Conditions
12:15 AM 51.8 °F 37.4 °F 58% 30.03 in 10.0 mi Calm Calm - N/A   Clear
12:35 AM 51.8 °F 35.6 °F 54% 30.03 in 10.0 mi Calm Calm - N/A   Clear
12:55 AM 51.8 °F 33.8 °F 50% 30.04 in 10.0 mi Calm Calm - N/A   Clear
1:15 AM 55.4 °F 32.0 °F 41% 30.04 in 10.0 mi Variable 5.8 mph - N/A   Clear
1:35 AM 59.0 °F 30.2 °F 34% 30.04 in 10.0 mi Variable 4.6 mph - N/A   Clear
1:55 AM 55.4 °F 30.2 °F 38% 30.04 in 10.0 mi North - - N/A   Clear
2:15 AM 53.6 °F 30.2 °F 41% 30.04 in 10.0 mi Calm Calm - N/A   Clear
2:35 AM 53.6 °F 30.2 °F 41% 30.04 in 10.0 mi Calm Calm - N/A   Clear
2:55 AM 53.6 °F 30.2 °F 41% 30.05 in 10.0 mi Calm Calm - N/A   Clear
3:15 AM 53.6 °F 26.6 °F 35% 30.05 in 10.0 mi Calm Calm - N/A   Clear
3:35 AM 53.6 °F 30.2 °F 41% 30.04 in 10.0 mi Calm Calm - N/A   Clear
3:55 AM 53.6 °F 28.4 °F 38% 30.05 in 10.0 mi Calm Calm - N/A   Clear
4:15 AM 53.6 °F 28.4 °F 38% 30.05 in 10.0 mi Calm Calm - N/A   Clear
4:35 AM 51.8 °F 30.2 °F 44% 30.05 in 10.0 mi North - - N/A   Clear
4:55 AM 51.8 °F 30.2 °F 44% 30.05 in 10.0 mi Calm Calm - N/A   Clear
5:15 AM 51.8 °F 28.4 °F 41% 30.05 in 10.0 mi North - - N/A   Clear
5:35 AM 51.8 °F 28.4 °F 41% 30.06 in 10.0 mi Calm Calm - N/A   Clear
5:55 AM 51.8 °F 28.4 °F 41% 30.07 in 10.0 mi Calm Calm - N/A   Clear
6:35 AM 51.8 °F 26.6 °F 38% 30.07 in 10.0 mi North - - N/A   Clear
6:55 AM 51.8 °F 26.6 °F 38% 30.08 in 10.0 mi Calm Calm - N/A   Clear
7:15 AM 51.8 °F 26.6 °F 38% 30.08 in 10.0 mi North - - N/A   Clear
7:35 AM 50.0 °F 26.6 °F 40% 30.08 in 10.0 mi Calm Calm - N/A   Clear
7:55 AM 51.8 °F 26.6 °F 38% 30.10 in 10.0 mi Calm Calm - N/A   Clear
8:15 AM 53.6 °F 28.4 °F 38% 30.10 in 10.0 mi Calm Calm - N/A   Clear
8:35 AM 57.2 °F 30.2 °F 36% 30.11 in 10.0 mi Calm Calm - N/A   Clear
8:55 AM 60.8 °F 33.8 °F 36% 30.12 in 10.0 mi Calm Calm - N/A   Clear
9:15 AM 66.2 °F 35.6 °F 32% 30.12 in 10.0 mi Calm Calm - N/A   Clear
9:35 AM 69.8 °F 35.6 °F 28% 30.13 in 10.0 mi Calm Calm - N/A   Clear
9:55 AM 73.4 °F 35.6 °F 25% 30.13 in 10.0 mi Calm Calm - N/A   Clear
10:15 AM 78.8 °F 26.6 °F 15% 30.14 in 10.0 mi Calm Calm - N/A   Clear
10:35 AM 82.4 °F 19.4 °F 10% 30.14 in 10.0 mi Calm Calm - N/A   Clear
10:55 AM 84.2 °F 19.4 °F 9% 30.14 in 10.0 mi Calm Calm - N/A   Clear
11:15 AM 84.2 °F 23.0 °F 11% 30.13 in 10.0 mi Variable 3.5 mph - N/A   Clear
11:35 AM 86.0 °F 23.0 °F 10% 30.13 in 10.0 mi SW 4.6 mph - N/A   Clear
11:55 AM 86.0 °F 19.4 °F 9% 30.14 in 10.0 mi Variable 4.6 mph - N/A   Clear
12:15 PM 87.8 °F 21.2 °F 9% 30.14 in 10.0 mi SW 4.6 mph - N/A   Clear
12:35 PM 86.0 °F 19.4 °F 9% 30.13 in 10.0 mi Variable 4.6 mph - N/A   Clear
12:55 PM 86.0 °F 19.4 °F 9% 30.13 in 10.0 mi SW 5.8 mph - N/A   Clear
1:15 PM 86.0 °F 19.4 °F 9% 30.13 in 10.0 mi Variable 5.8 mph - N/A   Clear
1:35 PM 87.8 °F 19.4 °F 8% 30.12 in 10.0 mi Variable 5.8 mph - N/A   Clear
1:55 PM 87.8 °F 23.0 °F 9% 30.12 in 10.0 mi SW 4.6 mph - N/A   Clear
2:15 PM 87.8 °F 26.6 °F 11% 30.11 in 9.0 mi Variable 6.9 mph - N/A   Clear
2:55 PM 86.0 °F 33.8 °F 15% 30.11 in 10.0 mi Variable 5.8 mph 12.7 mph N/A   Clear
3:15 PM 86.0 °F 32.0 °F 14% 30.11 in 10.0 mi Variable 4.6 mph - N/A   Clear
3:35 PM 86.0 °F 32.0 °F 14% 30.11 in 10.0 mi Variable 6.9 mph - N/A   Clear
3:55 PM 86.0 °F 32.0 °F 14% 30.11 in 10.0 mi Variable 5.8 mph - N/A   Clear
4:15 PM 84.2 °F 30.2 °F 14% 30.11 in 10.0 mi Variable 4.6 mph - N/A   Clear
4:35 PM 82.4 °F 30.2 °F 15% 30.12 in 10.0 mi Variable 4.6 mph - N/A   Clear
4:55 PM 80.6 °F 30.2 °F 16% 30.12 in 9.0 mi Variable 3.5 mph - N/A   Clear
5:15 PM 80.6 °F 30.2 °F 16% 30.12 in 10.0 mi Calm Calm - N/A   Clear
5:35 PM 78.8 °F 32.0 °F 18% 30.12 in 10.0 mi Calm Calm - N/A   Clear
5:55 PM 77.0 °F 32.0 °F 19% 30.12 in 10.0 mi Calm Calm - N/A   Clear
6:15 PM 73.4 °F 37.4 °F 27% 30.12 in 10.0 mi Calm Calm - N/A   Clear
6:35 PM 68.0 °F 37.4 °F 33% 30.12 in 10.0 mi Calm Calm - N/A   Clear
6:55 PM 64.4 °F 39.2 °F 40% 30.13 in 10.0 mi North - - N/A   Clear
7:15 PM 62.6 °F 39.2 °F 42% 30.14 in 10.0 mi Calm Calm - N/A   Clear
7:55 PM 59.0 °F 37.4 °F 45% 30.15 in 10.0 mi Calm Calm - N/A   Clear
8:15 PM 59.0 °F 35.6 °F 42% 30.14 in 10.0 mi Calm Calm - N/A   Clear
8:35 PM 57.2 °F 35.6 °F 44% 30.14 in 10.0 mi Calm Calm - N/A   Clear
8:55 PM 57.2 °F 35.6 °F 44% 30.14 in 10.0 mi Calm Calm - N/A   Clear
9:15 PM 57.2 °F 35.6 °F 44% 30.15 in 10.0 mi Calm Calm - N/A   Clear
9:35 PM 55.4 °F 35.6 °F 47% 30.16 in 10.0 mi Calm Calm - N/A   Clear
9:55 PM 55.4 °F 35.6 °F 47% 30.17 in 10.0 mi North - - N/A   Clear
10:15 PM 53.6 °F 35.6 °F 51% 30.17 in 10.0 mi North - - N/A   Clear
10:35 PM 53.6 °F 33.8 °F 47% 30.18 in 10.0 mi Calm Calm - N/A   Clear
10:55 PM 53.6 °F 33.8 °F 47% 30.18 in 10.0 mi Calm Calm - N/A   Clear
11:15 PM 53.6 °F 33.8 °F 47% 30.19 in 10.0 mi Calm Calm - N/A   Clear
11:35 PM 51.8 °F 33.8 °F 50% 30.19 in 10.0 mi Calm Calm - N/A   Clear
11:55 PM 53.6 °F 33.8 °F 47% 30.19 in 10.0 mi Calm Calm - N/A   Clear